Weather History for Sidney-Richland, MT

Change the Weather History Date:

Saturday, June 15, 2013

  Actual Average Record
Temperature  
Mean Temperature 60 °F -  
Max Temperature 73 °F 76 °F 94 °F (1987)
Min Temperature 46 °F 48 °F 36 °F (1915)
Degree Days  
Heating Degree Days 6    
Growing Degree Days 10 (Base 50)    
Moisture  
Dew Point 45 °F    
Average Humidity 58    
Maximum Humidity 93    
Minimum Humidity 36    
Precipitation  
Precipitation 0.00 in - - ()
Sea Level Pressure  
Sea Level Pressure 29.94 in    
Wind  
Wind Speed 11 mph (WSW)    
Max Wind Speed 22 mph    
Max Gust Speed 31 mph    
Visibility 10 miles    
Events      
Averages and records for this station are not official NWS values.
T = Trace of Precipitation, MM = Missing Value Source: NWS Daily Summary

Daily Weather History Graph

Daily Weather History Graph

Search for Another Location

Airport:

Trip Planner

Search our weather history database for the weather conditions in past years. The results will help you decide how hot, cold, wet, or windy it might be!

Date:

Astronomy

Jun. 15, 2013 Rise Set
Actual Time 4:57 AM MDT 8:56 PM MDT
Civil Twilight 4:17 AM MDT 9:37 PM MDT
Nautical Twilight 3:20 AM MDT 10:34 PM MDT
Astronomical Twilight 1:49 AM MDT 12:05 AM MDT
Moon 12:01 PM MDT (6/15) 12:08 AM MDT (6/15)
Length of Visible Light 17h 20m
Length of Day
15h 58m
Waxing Crescent, 40% of the Moon is Illuminated
Jun 15
Waxing Crescent
Jun 16
First Quarter
Jun 23
Full
Jun 29
Last Quarter
Jul 8
New

Hourly Weather History & Observations

Time (MDT) Temp. Windchill Dew Point Humidity Pressure Visibility Wind Dir Wind Speed Gust Speed Precip Events Conditions
12:15 AM 50.0 °F - 46.4 °F 87% 29.95 in 10.0 mi SSW 8.1 mph - N/A   Clear
12:35 AM 50.0 °F - 46.4 °F 87% 29.95 in 10.0 mi SSW 9.2 mph - N/A   Clear
12:55 AM 50.0 °F - 46.4 °F 87% 29.95 in 10.0 mi SSW 10.4 mph - N/A   Clear
1:35 AM 51.8 °F - 44.6 °F 76% 29.95 in 10.0 mi SW 9.2 mph - N/A   Clear
1:55 AM 50.0 °F - 44.6 °F 82% 29.95 in 10.0 mi SSW 8.1 mph - N/A   Clear
2:15 AM 48.2 °F - 44.6 °F 87% 29.95 in 10.0 mi SSW 6.9 mph - N/A   Clear
2:35 AM 48.2 °F - 44.6 °F 87% 29.95 in 10.0 mi SSW 9.2 mph - N/A   Clear
2:55 AM 48.2 °F - 44.6 °F 87% 29.95 in 10.0 mi SSW 9.2 mph - N/A   Partly Cloudy
3:15 AM 48.2 °F - 44.6 °F 87% 29.94 in 10.0 mi SSW 9.2 mph - N/A   Partly Cloudy
3:35 AM 48.2 °F - 44.6 °F 87% 29.94 in 10.0 mi SW 8.1 mph - N/A   Clear
3:55 AM 46.4 °F 43.5 °F 42.8 °F 87% 29.94 in 10.0 mi South 5.8 mph - N/A   Clear
4:15 AM 46.4 °F 44.3 °F 44.6 °F 93% 29.95 in 10.0 mi SW 4.6 mph - N/A   Clear
4:35 AM 46.4 °F 45.2 °F 42.8 °F 87% 29.95 in 10.0 mi SW 3.5 mph - N/A   Clear
4:55 AM 46.4 °F 43.5 °F 42.8 °F 87% 29.95 in 10.0 mi South 5.8 mph - N/A   Clear
5:15 AM 46.4 °F - 42.8 °F 87% 29.96 in 10.0 mi Calm Calm - N/A   Clear
5:35 AM 46.4 °F 42.9 °F 42.8 °F 87% 29.96 in 10.0 mi SW 6.9 mph - N/A   Clear
5:55 AM 51.8 °F - 42.8 °F 71% 29.97 in 10.0 mi WSW 10.4 mph - N/A   Clear
6:15 AM 53.6 °F - 42.8 °F 67% 29.97 in 10.0 mi WSW 9.2 mph - N/A   Clear
6:35 AM 53.6 °F - 42.8 °F 67% 29.97 in 10.0 mi SW 10.4 mph - N/A   Clear
6:55 AM 55.4 °F - 44.6 °F 67% 29.97 in 10.0 mi WSW 10.4 mph - N/A   Clear
7:16 AM 57.2 °F - 44.6 °F 63% 29.98 in 10.0 mi WSW 10.4 mph - N/A   Clear
7:35 AM 57.2 °F - 44.6 °F 63% 29.97 in 10.0 mi SW 9.2 mph - N/A   Clear
7:55 AM 60.8 °F - 44.6 °F 55% 29.97 in 10.0 mi WSW 15.0 mph 18.4 mph N/A   Clear
8:15 AM 60.8 °F - 44.6 °F 55% 29.97 in 10.0 mi WSW 15.0 mph 19.6 mph N/A   Clear
8:35 AM 62.6 °F - 42.8 °F 48% 29.97 in 10.0 mi West 15.0 mph 21.9 mph N/A   Clear
9:15 AM 62.6 °F - 44.6 °F 52% 29.96 in 10.0 mi West 17.3 mph 23.0 mph N/A   Clear
9:35 AM 64.4 °F - 44.6 °F 49% 29.96 in 10.0 mi WSW 18.4 mph 23.0 mph N/A   Clear
9:55 AM 64.4 °F - 46.4 °F 52% 29.96 in 10.0 mi West 20.7 mph 24.2 mph N/A   Clear
10:15 AM 66.2 °F - 44.6 °F 46% 29.96 in 10.0 mi West 13.8 mph 24.2 mph N/A   Clear
10:35 AM 66.2 °F - 46.4 °F 49% 29.95 in 10.0 mi WSW 21.9 mph 28.8 mph N/A   Clear
10:55 AM 66.2 °F - 46.4 °F 49% 29.95 in 10.0 mi WSW 19.6 mph 25.3 mph N/A   Clear
11:15 AM 68.0 °F - 46.4 °F 46% 29.95 in 10.0 mi West 19.6 mph 27.6 mph N/A   Partly Cloudy
11:35 AM 68.0 °F - 44.6 °F 43% 29.95 in 10.0 mi West 21.9 mph 27.6 mph N/A   Clear
11:55 AM 69.8 °F - 46.4 °F 43% 29.95 in 10.0 mi West 18.4 mph 28.8 mph N/A   Clear
12:15 PM 69.8 °F - 46.4 °F 43% 29.95 in 10.0 mi West 18.4 mph 27.6 mph N/A   Clear
12:35 PM 71.6 °F - 46.4 °F 41% 29.95 in 10.0 mi West 16.1 mph 24.2 mph N/A   Clear
12:55 PM 71.6 °F - 46.4 °F 41% 29.95 in 10.0 mi West 13.8 mph 28.8 mph N/A   Partly Cloudy
1:15 PM 71.6 °F - 46.4 °F 41% 29.95 in 10.0 mi West 19.6 mph 27.6 mph N/A   Partly Cloudy
1:35 PM 71.6 °F - 48.2 °F 43% 29.95 in 10.0 mi West 19.6 mph 24.2 mph N/A   Partly Cloudy
1:55 PM 71.6 °F - 46.4 °F 41% 29.94 in 10.0 mi West 20.7 mph 31.1 mph N/A   Scattered Clouds
2:15 PM 73.4 °F - 46.4 °F 38% 29.94 in 10.0 mi West 19.6 mph 25.3 mph N/A   Partly Cloudy
2:35 PM 73.4 °F - 48.2 °F 41% 29.93 in 10.0 mi West 18.4 mph 27.6 mph N/A   Partly Cloudy
2:55 PM 73.4 °F - 48.2 °F 41% 29.93 in 10.0 mi West 17.3 mph 24.2 mph N/A   Scattered Clouds
3:15 PM 73.4 °F - 46.4 °F 38% 29.93 in 10.0 mi West 17.3 mph 27.6 mph N/A   Scattered Clouds
3:35 PM 73.4 °F - 46.4 °F 38% 29.92 in 10.0 mi West 19.6 mph 25.3 mph N/A   Partly Cloudy
3:55 PM 73.4 °F - 46.4 °F 38% 29.92 in 10.0 mi West 19.6 mph 23.0 mph N/A   Partly Cloudy
4:15 PM 73.4 °F - 44.6 °F 36% 29.92 in 10.0 mi West 11.5 mph 26.5 mph N/A   Scattered Clouds
4:55 PM 73.4 °F - 44.6 °F 36% 29.91 in 10.0 mi West 18.4 mph 25.3 mph N/A   Partly Cloudy
5:15 PM 73.4 °F - 46.4 °F 38% 29.92 in 10.0 mi West 15.0 mph 23.0 mph N/A   Partly Cloudy
5:35 PM 73.4 °F - 44.6 °F 36% 29.92 in 10.0 mi West 15.0 mph - N/A   Partly Cloudy
5:55 PM 73.4 °F - 46.4 °F 38% 29.91 in 10.0 mi West 13.8 mph 23.0 mph N/A   Clear
6:15 PM 73.4 °F - 44.6 °F 36% 29.92 in 10.0 mi West 13.8 mph 23.0 mph N/A   Clear
6:35 PM 71.6 °F - 44.6 °F 38% 29.92 in 10.0 mi West 16.1 mph 21.9 mph N/A   Clear
6:55 PM 71.6 °F - 46.4 °F 41% 29.92 in 10.0 mi West 16.1 mph 21.9 mph N/A   Clear
7:15 PM 71.6 °F - 44.6 °F 38% 29.92 in 10.0 mi West 12.7 mph - N/A   Clear
7:35 PM 69.8 °F - 46.4 °F 43% 29.92 in 10.0 mi WSW 11.5 mph - N/A   Clear
7:55 PM 69.8 °F - 46.4 °F 43% 29.92 in 10.0 mi WSW 9.2 mph - N/A   Clear
8:15 PM 66.2 °F - 46.4 °F 49% 29.92 in 10.0 mi WSW 9.2 mph - N/A   Clear
8:35 PM 64.4 °F - 46.4 °F 52% 29.92 in 10.0 mi WSW 9.2 mph - N/A   Clear
8:55 PM 62.6 °F - 46.4 °F 55% 29.92 in 10.0 mi WSW 9.2 mph - N/A   Clear
9:15 PM 62.6 °F - 46.4 °F 55% 29.93 in 10.0 mi WSW 9.2 mph - N/A   Clear
9:35 PM 60.8 °F - 46.4 °F 59% 29.93 in 10.0 mi WSW 10.4 mph - N/A   Clear
9:55 PM 60.8 °F - 46.4 °F 59% 29.93 in 10.0 mi WSW 11.5 mph - N/A   Clear
10:15 PM 60.8 °F - 46.4 °F 59% 29.94 in 10.0 mi WSW 10.4 mph - N/A   Clear
10:35 PM 60.8 °F - 46.4 °F 59% 29.94 in 10.0 mi WSW 10.4 mph - N/A   Clear
11:15 PM 59.0 °F - 44.6 °F 59% 29.94 in 10.0 mi WSW 9.2 mph - N/A   Clear
11:35 PM 59.0 °F - 44.6 °F 59% 29.95 in 10.0 mi WSW 9.2 mph - N/A   Clear
11:55 PM 53.6 °F - 46.4 °F 77% 29.95 in 10.0 mi SSW 5.8 mph - N/A   Clear